SCP
0 0 0 0 0 0 0 0 0 0 0 0 0 0 0 0 0 0 0 0 0 0 0 0 0 0 0 0 0 0 0 0 0 0 0 0 0 0 0 0 0 0 0 0
0 0 0 0 0 0 0 0 0 0 0 0 0 0 0 0 0 0 0 0 0 0 0 0 0 0 0 0 0 0 0 0 0 0 0 0 0 0 0 0 0 0 0 0
0 0 0 0 0 0 0 0 0 0 0 0 0 0 0 0 0 0 0 0 0 0 0 0 0 0 0 0 0 0 0 0 0 0 0 0 0 0 0 0 0 0 0 0
0 0 0 0 0 0 0 0 0 0 0 0 0 0 0 0 0 0 0 0 0 0 0 0 0 0 0 0 0 0 0 0 0 0 0 0 0 0 0 0 0 0 0 0
0 0 0 0 0 0 0 0 0 0 0 0 0 0 0 0 0 0 0 0 0 0 0 0 0 0 0 0 0 0 0 0 0 0 0 0 0 0 0 0 0 0 0 0
0 0 0 0 0 0 0 0 0 0 0 0 0 0 0 0 0 0 0 0 0 0 0 0 0 0 0 0 0 0 0 0 0 0 0 0 0 0 0 0 0 0 0 0
0 0 0 0 0 0 0 0 0 0 0 0 0 0 0 0 0 0 0 0 0 0 0 0 0 0 0 0 0 0 0 0 0 0 0 0 0 0 0 0 0 0 0 0
0 0 0 0 0 0 0 0 0 0 0 0 0 0 0 0 0 0 0 0 0 0 0 0 0 0 0 0 0 0 0 0 0 0 0 0 0 0 0 0 0 0 0 0
0 0 0 0 0 0 0 0 0 0 -0 0 0 0 0 0 0 0 0 0 0 0 0 0 0 0 0 0 0 0 0 0 0 0 0 0 0 0 0 0 0 0 0 0
0 0 0 0 0 0 0 0 0 -0 0 0 0 0 0 0 0 0 0 0 0 0 0 0 0 0 0 0 0 0 0 0 0 0 0 0 0 0 0 0 0 0 0 0
0 0 0 0 0 0 0 0 0 -0 0 0 0 0 0 0 0 0 0 0 0 0 0 0 0 0 0 0 0 0 0 0 0 0 0 0 0 0 0 0 0 0 0 0
0 0 0 0 0 0 0 0 0 0 -0 0 0 0 0 0 0 0 0 0 0 0 0 0 0 0 0 0 0 0 0 0 0 0 0 0 0 0 0 0 0 0 0 0
0 0 0 0 0 0 0 0 0 -0 -0 -0 0 0 0 0 0 0 0 0 0 0 0 0 0 0 0 0 0 0 0 0 0 0 0 0 0 0 0 0 0 0 0 0
0 0 0 0 0 0 0 0 0 0 -0 0 0 0 0 0 0 0 0 0 0 0 0 0 0 0 0 0 0 0 0 0 0 0 0 0 0 0 0 0 0 0 0 0
0 0 0 0 0 0 0 0 0 0 0 0 -0 0 0 0 0 0 0 0 0 0 0 0 0 0 0 0 0 0 0 0 0 0 0 0 0 0 0 0 0 0 0 0
0 0 0 0 0 0 0 0 0 0 0 0 0 0 0 0 0 0 0 0 0 0 0 0 0 0 0 0 0 0 0 0 0 0 0 0 0 0 0 0 0 0 0 0
0 0 0 0 0 0 0 0 0 0 0 0 -0 0 0 0 0 0 0 0 0 0 0 0 0 0 0 0 0 0 0 0 0 0 0 0 0 0 0 0 0 0 0 0
0 0 0 0 0 0 0 -0 -0 0 0 0 -0 0 0 0 0 0 0 0 0 0 0 0 0 0 0 0 -0 0 0 0 0 0 0 0 0 0 0 0 0 0 0 0
0 0 0 0 0 0 0 -0 -0 0 0 0 0 0 0 0 0 0 0 0 0 0 0 0 0 0 0 0 0 0 0 0 0 0 0 0 0 0 0 0 0 0 0 0
0 0 0 0 0 0 -0 0 -0 0 0 0 0 0 0 0 0 0 0 0 0 0 0 0 0 0 0 0 0 0 0 0 0 0 0 0 0 0 0 0 0 0 0 0
0 0 0 0 0 0 0 0 0 0 0 0 0 0 0 0 0 0 0 0 0 0 0 0 0 0 0 0 0 0 0 0 0 0 0 0 0 0 0 0 0 0 0 0
0 0 0 0 0 0 0 0 0 0 0 0 0 0 0 0 0 0 0 0 0 -0 0 0 -0 -0 0 0 0 0 0 0 0 0 0 0 0 0 0 0 0 0 0 0
0 0 0 0 0 0 0 0 0 0 0 0 0 0 0 0 0 0 0 0 0 0 0 0 0 0 0 0 0 0 0 0 0 0 0 0 0 0 0 0 0 0 0 0
0 0 -0 0 0 0 0 0 0 0 0 0 0 0 0 0 0 0 0 0 0 0 0 0 0 0 0 0 0 0 0 0 0 0 0 0 0 0 0 0 0 0 0 0
0 0 -0 0 0 0 0 0 0 0 0 0 0 0 0 0 0 0 0 0 0 0 -0 0 0 0 0 0 0 0 0 0 0 0 0 0 0 0 0 0 0 0 0 0
0 0 -0 -0 0 0 0 0 0 0 0 0 0 0 0 0 0 0 0 0 0 0 0 0 0 0 0 0 0 0 0 0 0 0 0 0 0 0 0 0 0 0 0 0
-0 -0 -0 -0 0 0 0 0 0 0 0 0 0 0 0 0 -0 -0 -0 0 0 0 0 0 0 0 0 0 0 0 0 0 0 0 0 0 0 0 0 0 0 0 0 0
Wind_Speed_500mb
35 35 30 24 20 20 13 8 8 7 28 14 14 8 8 8 7 24 4 10 7 13 13 9 9 11 7 1 13 11 2 11 6 2 3 3 5 8 10 9 8 3 4 11
38 37 32 26 19 14 12 10 23 10 43 8 4 2 9 9 7 10 11 8 6 6 13 7 8 8 1 5 5 14 12 3 5 6 9 9 4 3 9 7 5 11 9 11
42 39 35 30 23 18 19 11 4 21 38 6 15 17 12 12 12 8 10 9 10 8 5 7 11 7 2 4 6 7 14 6 10 12 8 9 4 7 4 9 6 7 14 12
45 42 36 33 30 24 24 14 11 11 8 11 9 27 13 20 14 9 14 3 10 14 8 5 7 4 3 6 6 6 6 6 5 5 4 5 6 6 14 14 13 12 16 14
47 42 42 38 37 31 37 11 10 7 5 18 33 13 16 15 27 11 10 10 13 10 14 15 17 13 7 8 4 6 6 4 4 4 4 5 7 16 17 15 5 15 11 31
51 47 44 42 45 40 35 35 34 22 11 12 19 15 20 23 17 13 13 18 13 10 11 19 4 12 17 16 15 7 6 11 6 5 6 5 12 17 12 10 10 11 10 15
54 51 48 49 52 51 53 35 26 14 5 16 22 21 40 27 23 12 10 16 16 17 31 39 34 38 28 20 17 10 11 9 5 4 6 1 12 6 8 14 11 16 13 13
56 55 51 53 54 53 54 57 41 6 8 20 14 25 23 26 20 12 12 19 12 54 29 9 9 10 11 9 13 8 5 10 6 8 6 12 12 3 6 10 6 3 7 12
57 57 53 54 53 52 51 60 52 34 12 9 15 23 25 10 11 10 11 22 28 36 10 8 9 8 11 7 4 10 11 12 8 5 7 10 12 7 2 4 8 2 5 13
59 58 56 58 53 48 50 55 49 36 14 30 12 8 20 22 16 8 6 6 23 7 5 6 6 6 10 10 15 10 6 5 10 4 4 14 12 16 4 7 11 1 7 6
59 57 57 60 51 45 44 55 52 34 15 52 20 13 17 31 39 11 20 2 6 6 8 7 7 7 11 8 9 12 13 12 6 6 5 13 13 9 12 8 9 2 4 7
58 58 56 61 52 43 39 42 44 41 38 25 28 29 29 27 51 57 27 18 14 25 8 1 7 5 4 11 6 2 6 12 11 16 12 9 16 6 5 9 7 5 7 18
53 55 54 62 52 42 39 31 22 35 29 60 62 42 33 39 55 57 42 25 19 15 13 20 6 6 8 9 10 7 6 11 6 6 9 23 15 19 13 10 5 8 15 30
54 51 64 62 52 38 37 34 30 36 7 11 19 15 36 45 62 74 71 62 16 13 17 8 6 7 17 9 7 9 9 21 12 8 10 7 23 26 21 17 16 24 31 37
54 56 60 59 41 38 37 34 36 44 42 7 16 33 29 44 46 73 90 54 41 16 7 5 5 11 10 6 6 4 20 14 11 12 30 18 10 39 28 26 30 34 38 47
55 56 52 43 36 35 28 12 36 50 44 16 6 14 19 45 46 71 77 51 29 19 4 6 8 11 11 8 8 14 45 39 36 18 20 24 18 37 34 34 41 43 42 45
53 52 44 40 31 39 33 10 7 43 40 11 10 10 13 49 51 42 43 49 43 17 10 8 10 9 14 6 10 16 28 38 33 24 29 27 37 28 42 42 48 47 45 45
46 41 38 34 26 31 40 29 25 29 51 13 5 7 11 30 22 13 19 16 22 23 4 5 7 11 3 5 13 30 32 38 33 35 35 22 39 46 52 51 54 54 52 52
44 40 36 26 23 18 47 45 40 33 29 10 12 5 7 12 14 16 13 10 5 7 7 9 11 4 10 16 28 40 51 48 45 44 26 36 47 57 61 62 61 58 58 50
45 41 17 10 20 31 21 19 8 15 21 16 9 11 7 18 8 7 11 9 6 5 6 18 5 8 42 22 32 33 47 49 54 57 48 51 57 65 67 64 60 53 55 49
42 17 20 12 22 28 20 16 20 22 14 21 12 25 6 6 9 5 6 5 5 7 7 9 5 8 19 62 46 38 42 47 52 50 43 51 43 73 72 66 57 52 49 43
36 20 22 15 27 15 10 10 8 8 13 28 23 17 10 10 12 12 9 5 3 10 18 6 6 9 25 41 70 57 49 52 58 39 40 53 60 67 69 65 59 51 44 39
31 13 6 11 17 14 11 17 7 6 19 29 37 14 11 9 10 10 6 8 9 23 4 8 9 10 23 22 36 56 57 60 56 48 52 56 65 66 63 64 55 50 44 36
11 15 9 10 11 11 10 9 12 20 27 56 66 28 9 9 5 7 8 3 8 1 5 11 7 33 31 35 45 64 68 64 60 59 60 67 73 70 62 55 53 47 41 37
13 13 10 15 21 14 28 31 19 25 48 68 44 20 14 5 6 3 8 5 8 11 10 8 17 47 47 51 62 72 74 69 67 67 72 78 75 69 64 54 47 38 35 31
11 15 12 20 10 6 13 33 21 51 61 60 24 9 7 4 7 7 13 15 13 9 7 14 42 54 56 65 71 75 75 74 73 74 78 77 71 67 62 54 42 35 29 27
14 16 32 36 40 34 27 43 50 72 66 15 10 10 11 10 7 9 10 11 6 16 27 42 54 62 67 72 77 78 77 76 77 81 77 72 67 62 58 53 45 36 30 22
Wind_Direction_500mb
260 258 261 260 275 296 293 246 235 228 186 169 196 157 201 233 234 204 186 121 119 166 169 145 186 213 239 96 161 143 86 127 156 157 67 351 188 173 143 121 244 237 144 277
255 252 252 249 251 270 250 250 240 257 181 163 207 140 247 247 209 194 171 154 149 179 167 150 180 168 246 102 152 156 186 11 65 352 14 347 210 94 96 105 88 199 144 258
248 248 243 240 233 238 237 288 240 218 207 217 147 179 220 252 234 209 161 137 122 111 115 43 174 153 22 54 110 116 133 126 159 186 197 145 178 188 122 128 137 187 226 297
243 242 238 235 226 225 224 247 249 202 200 216 172 190 170 200 251 227 181 75 167 151 123 96 157 139 117 80 111 81 97 153 117 210 122 197 205 163 181 190 203 179 266 205
240 238 236 225 220 216 223 267 252 257 265 178 198 190 202 181 213 181 235 161 180 151 151 176 193 147 188 186 85 89 27 145 93 19 14 238 284 248 217 224 246 258 276 279
238 234 229 220 221 216 221 237 259 288 196 176 179 192 173 197 237 274 238 174 124 149 207 173 175 159 151 166 146 123 109 126 106 240 8 23 311 246 212 199 204 172 206 235
236 232 229 220 220 222 222 227 263 291 249 191 198 183 202 202 163 258 349 196 137 170 141 110 98 86 82 85 65 121 128 102 89 185 40 357 241 229 197 206 231 216 273 286
234 229 227 223 223 223 230 229 247 331 283 224 179 186 190 208 209 228 331 289 255 155 133 73 56 359 27 7 29 55 105 118 83 137 206 290 309 332 142 177 294 143 235 286
230 227 223 220 223 224 230 230 240 253 319 253 226 188 186 163 178 168 281 273 198 168 91 84 133 176 180 202 86 65 74 69 112 153 146 228 234 255 254 99 293 290 308 313
228 225 221 218 221 224 227 230 232 234 250 277 314 191 189 175 157 143 227 199 195 224 98 99 146 197 167 161 166 170 96 37 154 145 212 288 240 222 333 93 232 292 356 46
223 221 221 215 218 222 225 229 232 238 247 265 287 251 178 170 171 147 203 83 242 50 76 125 199 137 206 123 169 176 163 143 181 84 85 277 193 101 164 195 155 147 58 111
220 220 226 208 211 215 222 234 233 241 241 261 256 252 215 220 202 181 170 214 224 189 92 130 111 113 104 152 209 43 200 179 177 179 211 227 198 208 197 159 129 147 144 139
217 218 222 204 207 210 220 226 224 212 242 265 274 263 238 223 201 207 190 208 249 219 172 155 147 137 136 154 225 151 232 172 154 98 236 229 219 220 217 194 172 151 155 150
217 220 208 205 200 208 218 230 219 214 218 251 281 281 247 219 212 205 208 197 235 227 176 129 136 144 196 189 149 159 183 151 170 257 272 265 229 218 202 182 165 152 150 156
221 215 204 200 191 211 222 240 230 210 205 298 296 293 261 213 211 205 211 209 214 209 175 101 178 144 129 61 81 223 189 179 167 216 212 201 203 199 189 179 169 166 158 155
209 192 185 185 195 209 219 246 239 211 216 261 286 311 248 210 181 189 187 190 197 225 266 138 155 171 174 140 189 236 207 214 229 228 210 199 166 171 177 171 166 165 163 163
183 180 180 183 198 207 195 203 132 198 207 234 278 283 236 196 177 162 171 188 188 193 253 193 152 163 180 130 191 210 205 216 217 212 178 143 162 169 169 169 162 164 160 158
177 178 179 189 211 220 232 207 210 196 193 238 223 257 260 171 153 122 148 140 148 189 203 170 159 141 160 258 224 203 201 194 195 188 195 200 178 164 165 166 162 158 154 154
173 176 180 191 223 227 235 225 225 173 187 220 188 186 230 160 110 106 114 122 75 141 178 214 160 182 215 221 194 195 194 189 185 183 185 166 171 164 164 165 163 159 155 156
169 170 156 185 222 230 242 240 231 208 209 236 225 181 232 154 93 81 117 110 134 153 227 150 162 250 236 224 204 212 201 195 186 163 152 162 165 168 165 165 164 164 158 156
163 155 187 199 172 178 185 201 195 208 179 197 210 190 142 90 120 110 60 142 141 158 212 171 216 262 228 227 217 212 206 205 201 211 205 190 185 171 166 163 163 161 158 156
173 165 189 204 193 190 188 207 223 215 192 163 160 150 123 120 110 106 141 97 107 197 148 121 249 246 213 207 213 205 196 193 190 191 178 174 172 170 164 161 160 159 155 148
162 186 238 228 190 183 209 179 202 203 166 159 150 130 136 96 90 102 123 154 192 132 102 215 228 219 202 193 181 181 182 181 178 168 167 166 164 163 164 158 158 155 150 145
163 176 233 242 174 212 199 203 171 194 180 152 152 131 127 113 141 133 125 120 130 142 223 225 240 200 178 170 174 175 170 173 168 162 160 159 159 158 159 159 156 154 148 143
180 195 222 232 242 246 219 208 164 177 169 150 142 104 135 147 135 134 110 128 217 214 227 219 200 172 166 162 166 168 164 164 161 159 158 158 158 155 151 151 150 151 146 144
217 231 251 287 277 249 191 174 180 163 164 155 145 117 94 180 149 149 209 160 212 236 200 177 161 160 161 162 163 163 161 161 159 158 158 156 155 154 149 146 147 146 144 140
227 234 245 259 286 282 252 174 173 164 163 178 138 123 164 131 179 212 178 197 230 176 147 161 167 164 162 161 159 160 160 159 156 155 155 153 153 151 149 147 147 147 143 141
Wind_Speed_850mb
35 35 30 24 20 20 13 8 8 7 28 14 14 8 8 8 7 24 4 10 7 13 13 9 9 11 7 1 13 11 2 11 6 2 3 3 5 8 10 9 8 3 4 11
38 37 32 26 19 14 12 10 23 10 43 8 4 2 9 9 7 10 11 8 6 6 13 7 8 8 1 5 5 14 12 3 5 6 9 9 4 3 9 7 5 11 9 11
42 39 35 30 23 18 19 11 4 21 38 6 15 17 12 12 12 8 10 9 10 8 5 7 11 7 2 4 6 7 14 6 10 12 8 9 4 7 4 9 6 7 14 12
45 42 36 33 30 24 24 14 11 11 8 11 9 27 13 20 14 9 14 3 10 14 8 5 7 4 3 6 6 6 6 6 5 5 4 5 6 6 14 14 13 12 16 14
47 42 42 38 37 31 37 11 10 7 5 18 33 13 16 15 27 11 10 10 13 10 14 15 17 13 7 8 4 6 6 4 4 4 4 5 7 16 17 15 5 15 11 31
51 47 44 42 45 40 35 35 34 22 11 12 19 15 20 23 17 13 13 18 13 10 11 19 4 12 17 16 15 7 6 11 6 5 6 5 12 17 12 10 10 11 10 15
54 51 48 49 52 51 53 35 26 14 5 16 22 21 40 27 23 12 10 16 16 17 31 39 34 38 28 20 17 10 11 9 5 4 6 1 12 6 8 14 11 16 13 13
56 55 51 53 54 53 54 57 41 6 8 20 14 25 23 26 20 12 12 19 12 54 29 9 9 10 11 9 13 8 5 10 6 8 6 12 12 3 6 10 6 3 7 12
57 57 53 54 53 52 51 60 52 34 12 9 15 23 25 10 11 10 11 22 28 36 10 8 9 8 11 7 4 10 11 12 8 5 7 10 12 7 2 4 8 2 5 13
59 58 56 58 53 48 50 55 49 36 14 30 12 8 20 22 16 8 6 6 23 7 5 6 6 6 10 10 15 10 6 5 10 4 4 14 12 16 4 7 11 1 7 6
59 57 57 60 51 45 44 55 52 34 15 52 20 13 17 31 39 11 20 2 6 6 8 7 7 7 11 8 9 12 13 12 6 6 5 13 13 9 12 8 9 2 4 7
58 58 56 61 52 43 39 42 44 41 38 25 28 29 29 27 51 57 27 18 14 25 8 1 7 5 4 11 6 2 6 12 11 16 12 9 16 6 5 9 7 5 7 18
53 55 54 62 52 42 39 31 22 35 29 60 62 42 33 39 55 57 42 25 19 15 13 20 6 6 8 9 10 7 6 11 6 6 9 23 15 19 13 10 5 8 15 30
54 51 64 62 52 38 37 34 30 36 7 11 19 15 36 45 62 74 71 62 16 13 17 8 6 7 17 9 7 9 9 21 12 8 10 7 23 26 21 17 16 24 31 37
54 56 60 59 41 38 37 34 36 44 42 7 16 33 29 44 46 73 90 54 41 16 7 5 5 11 10 6 6 4 20 14 11 12 30 18 10 39 28 26 30 34 38 47
55 56 52 43 36 35 28 12 36 50 44 16 6 14 19 45 46 71 77 51 29 19 4 6 8 11 11 8 8 14 45 39 36 18 20 24 18 37 34 34 41 43 42 45
53 52 44 40 31 39 33 10 7 43 40 11 10 10 13 49 51 42 43 49 43 17 10 8 10 9 14 6 10 16 28 38 33 24 29 27 37 28 42 42 48 47 45 45
46 41 38 34 26 31 40 29 25 29 51 13 5 7 11 30 22 13 19 16 22 23 4 5 7 11 3 5 13 30 32 38 33 35 35 22 39 46 52 51 54 54 52 52
44 40 36 26 23 18 47 45 40 33 29 10 12 5 7 12 14 16 13 10 5 7 7 9 11 4 10 16 28 40 51 48 45 44 26 36 47 57 61 62 61 58 58 50
45 41 17 10 20 31 21 19 8 15 21 16 9 11 7 18 8 7 11 9 6 5 6 18 5 8 42 22 32 33 47 49 54 57 48 51 57 65 67 64 60 53 55 49
42 17 20 12 22 28 20 16 20 22 14 21 12 25 6 6 9 5 6 5 5 7 7 9 5 8 19 62 46 38 42 47 52 50 43 51 43 73 72 66 57 52 49 43
36 20 22 15 27 15 10 10 8 8 13 28 23 17 10 10 12 12 9 5 3 10 18 6 6 9 25 41 70 57 49 52 58 39 40 53 60 67 69 65 59 51 44 39
31 13 6 11 17 14 11 17 7 6 19 29 37 14 11 9 10 10 6 8 9 23 4 8 9 10 23 22 36 56 57 60 56 48 52 56 65 66 63 64 55 50 44 36
11 15 9 10 11 11 10 9 12 20 27 56 66 28 9 9 5 7 8 3 8 1 5 11 7 33 31 35 45 64 68 64 60 59 60 67 73 70 62 55 53 47 41 37
13 13 10 15 21 14 28 31 19 25 48 68 44 20 14 5 6 3 8 5 8 11 10 8 17 47 47 51 62 72 74 69 67 67 72 78 75 69 64 54 47 38 35 31
11 15 12 20 10 6 13 33 21 51 61 60 24 9 7 4 7 7 13 15 13 9 7 14 42 54 56 65 71 75 75 74 73 74 78 77 71 67 62 54 42 35 29 27
14 16 32 36 40 34 27 43 50 72 66 15 10 10 11 10 7 9 10 11 6 16 27 42 54 62 67 72 77 78 77 76 77 81 77 72 67 62 58 53 45 36 30 22
Wind_Direction_850mb
260 258 261 260 275 296 293 246 235 228 186 169 196 157 201 233 234 204 186 121 119 166 169 145 186 213 239 96 161 143 86 127 156 157 67 351 188 173 143 121 244 237 144 277
255 252 252 249 251 270 250 250 240 257 181 163 207 140 247 247 209 194 171 154 149 179 167 150 180 168 246 102 152 156 186 11 65 352 14 347 210 94 96 105 88 199 144 258
248 248 243 240 233 238 237 288 240 218 207 217 147 179 220 252 234 209 161 137 122 111 115 43 174 153 22 54 110 116 133 126 159 186 197 145 178 188 122 128 137 187 226 297
243 242 238 235 226 225 224 247 249 202 200 216 172 190 170 200 251 227 181 75 167 151 123 96 157 139 117 80 111 81 97 153 117 210 122 197 205 163 181 190 203 179 266 205
240 238 236 225 220 216 223 267 252 257 265 178 198 190 202 181 213 181 235 161 180 151 151 176 193 147 188 186 85 89 27 145 93 19 14 238 284 248 217 224 246 258 276 279
238 234 229 220 221 216 221 237 259 288 196 176 179 192 173 197 237 274 238 174 124 149 207 173 175 159 151 166 146 123 109 126 106 240 8 23 311 246 212 199 204 172 206 235
236 232 229 220 220 222 222 227 263 291 249 191 198 183 202 202 163 258 349 196 137 170 141 110 98 86 82 85 65 121 128 102 89 185 40 357 241 229 197 206 231 216 273 286
234 229 227 223 223 223 230 229 247 331 283 224 179 186 190 208 209 228 331 289 255 155 133 73 56 359 27 7 29 55 105 118 83 137 206 290 309 332 142 177 294 143 235 286
230 227 223 220 223 224 230 230 240 253 319 253 226 188 186 163 178 168 281 273 198 168 91 84 133 176 180 202 86 65 74 69 112 153 146 228 234 255 254 99 293 290 308 313
228 225 221 218 221 224 227 230 232 234 250 277 314 191 189 175 157 143 227 199 195 224 98 99 146 197 167 161 166 170 96 37 154 145 212 288 240 222 333 93 232 292 356 46
223 221 221 215 218 222 225 229 232 238 247 265 287 251 178 170 171 147 203 83 242 50 76 125 199 137 206 123 169 176 163 143 181 84 85 277 193 101 164 195 155 147 58 111
220 220 226 208 211 215 222 234 233 241 241 261 256 252 215 220 202 181 170 214 224 189 92 130 111 113 104 152 209 43 200 179 177 179 211 227 198 208 197 159 129 147 144 139
217 218 222 204 207 210 220 226 224 212 242 265 274 263 238 223 201 207 190 208 249 219 172 155 147 137 136 154 225 151 232 172 154 98 236 229 219 220 217 194 172 151 155 150
217 220 208 205 200 208 218 230 219 214 218 251 281 281 247 219 212 205 208 197 235 227 176 129 136 144 196 189 149 159 183 151 170 257 272 265 229 218 202 182 165 152 150 156
221 215 204 200 191 211 222 240 230 210 205 298 296 293 261 213 211 205 211 209 214 209 175 101 178 144 129 61 81 223 189 179 167 216 212 201 203 199 189 179 169 166 158 155
209 192 185 185 195 209 219 246 239 211 216 261 286 311 248 210 181 189 187 190 197 225 266 138 155 171 174 140 189 236 207 214 229 228 210 199 166 171 177 171 166 165 163 163
183 180 180 183 198 207 195 203 132 198 207 234 278 283 236 196 177 162 171 188 188 193 253 193 152 163 180 130 191 210 205 216 217 212 178 143 162 169 169 169 162 164 160 158
177 178 179 189 211 220 232 207 210 196 193 238 223 257 260 171 153 122 148 140 148 189 203 170 159 141 160 258 224 203 201 194 195 188 195 200 178 164 165 166 162 158 154 154
173 176 180 191 223 227 235 225 225 173 187 220 188 186 230 160 110 106 114 122 75 141 178 214 160 182 215 221 194 195 194 189 185 183 185 166 171 164 164 165 163 159 155 156
169 170 156 185 222 230 242 240 231 208 209 236 225 181 232 154 93 81 117 110 134 153 227 150 162 250 236 224 204 212 201 195 186 163 152 162 165 168 165 165 164 164 158 156
163 155 187 199 172 178 185 201 195 208 179 197 210 190 142 90 120 110 60 142 141 158 212 171 216 262 228 227 217 212 206 205 201 211 205 190 185 171 166 163 163 161 158 156
173 165 189 204 193 190 188 207 223 215 192 163 160 150 123 120 110 106 141 97 107 197 148 121 249 246 213 207 213 205 196 193 190 191 178 174 172 170 164 161 160 159 155 148
162 186 238 228 190 183 209 179 202 203 166 159 150 130 136 96 90 102 123 154 192 132 102 215 228 219 202 193 181 181 182 181 178 168 167 166 164 163 164 158 158 155 150 145
163 176 233 242 174 212 199 203 171 194 180 152 152 131 127 113 141 133 125 120 130 142 223 225 240 200 178 170 174 175 170 173 168 162 160 159 159 158 159 159 156 154 148 143
180 195 222 232 242 246 219 208 164 177 169 150 142 104 135 147 135 134 110 128 217 214 227 219 200 172 166 162 166 168 164 164 161 159 158 158 158 155 151 151 150 151 146 144
217 231 251 287 277 249 191 174 180 163 164 155 145 117 94 180 149 149 209 160 212 236 200 177 161 160 161 162 163 163 161 161 159 158 158 156 155 154 149 146 147 146 144 140
227 234 245 259 286 282 252 174 173 164 163 178 138 123 164 131 179 212 178 197 230 176 147 161 167 164 162 161 159 160 160 159 156 155 155 153 153 151 149 147 147 147 143 141